< < Back
Terminal Aerodrome Forecast


Current Version              Previous Versions:   1  2  3  4  5  6  7  8  9  

Terminal Aerodrome Forecast

612
FTUS44 KBMX 270500
TAFANB
TAF
KANB 270532Z 2706/2806 VRB03KT P6SM SCT025 BKN070
     FM271500 32010G18KT P6SM BKN030
     FM280200 33004KT P6SM SKC=



Latest METAR

916
SAUS70 KWBC 280400 RRB
MTRANB
METAR KANB 280353Z AUTO 03005KT 10SM CLR 04/M01 A3016 RMK AO2 SLP218
T00441011


USA.gov is the U.S. government's official web portal to all federal, state and local government web resources and services.